sat.trackr.live / text

‹ back to catalog

STARLINK-6351

NORAD 57240 · 2023-094Y

PAYLOAD ACTIVE UNKNOWN

§ Identity

Operator
Country
US
Launch date
2023-07-07
Launch site
AFWTR
Launch vehicle
Mass (kg)
RCS (m²)

Purposes: comms

External: N2YO · Heavens-Above · Gunter

§ Orbital elements

Epoch: 2026-05-24T22:09:33.217632Z

Period
94.27 min
Inclination
43.0035°
Eccentricity
0.0001888
Mean motion
15.27578068 rev/d
Perigee alt
481.8 km
Apogee alt
484.4 km
Semi-major
6,861.2 km
B*
1.5374e-5
RAAN
308.9614°
Arg perigee
268.9200°
Mean anomaly
91.1435°
Rev number
15,890

§ Raw data

STARLINK-63511 57240U 23094Y   26144.92330113  .00000161  00000+0  15374-4 0  99962 57240  43.0035 308.9614 0001888 268.9200  91.1435 15.27578068158903

JSON: /api/v1/satellites/57240 · /tle

For live sub-satellite position, see the globe view (requires WebGL).

§ Visibility from observer

Set your observer location to see the next 7 days of passes ≥ 10°. The values pass through the URL so the page stays shareable.

No JS? Fill the form by hand. The geolocation button needs JavaScript.